Kankakee, IL

12:41 AM CST on November 25, 2017 (GMT -0600)
Greater Kankakee

Weather History for KIKK - November, 2011

Change the Weather History Date:

Monday, November 28, 2011

  Actual Average Record
Temperature  
Mean Temperature 36 °F -  
Max Temperature 39 °F 43 °F 68 °F (1990)
Min Temperature 33 °F 26 °F 7 °F (1977)
Degree Days  
Heating Degree Days 29    
Moisture  
Dew Point 32 °F    
Average Humidity 87    
Maximum Humidity 93    
Minimum Humidity 75    
Precipitation  
Precipitation 0.00 in - - ()
Sea Level Pressure  
Sea Level Pressure 30.08 in    
Wind  
Wind Speed 9 mph (North)    
Max Wind Speed 17 mph    
Max Gust Speed 24 mph    
Visibility 10 miles    
Events Rain , Snow    
Averages and records for this station are not official NWS values.
T = Trace of Precipitation, MM = Missing Value Source: NWS Daily Summary

Daily Weather History Graph

Daily Weather History Graph

Search for Another Location

Airport or City:

Trip Planner

Search our weather history database for the weather conditions in past years. The results will help you decide how hot, cold, wet, or windy it might be!

Date:

Astronomy

Nov. 28, 2011 Rise Set
Actual Time 6:53 AM CST 4:24 PM CST
Civil Twilight 6:23 AM CST 4:55 PM CST
Nautical Twilight 5:49 AM CST 5:29 PM CST
Astronomical Twilight 5:16 AM CST 6:02 PM CST
Moon 10:02 AM CST (11/28) 8:11 PM CST (11/28)
Length of Visible Light 10h 31m
Length of Day
9h 31m
Waxing Crescent, 16% of the Moon is Illuminated
Nov 28
Waxing Crescent
Dec 2
First Quarter
Dec 10
Full
Dec 17
Last Quarter
Dec 24
New

Hourly Weather History & Observations

Time (CST) Temp. Windchill Dew Point Humidity Pressure Visibility Wind Dir Wind Speed Gust Speed Precip Events Conditions
12:15 AM 35.6 °F 28.6 °F 30.2 °F 81% 30.13 in 10.0 mi NNW 9.2 mph - N/A   Overcast
12:35 AM 35.6 °F 29.9 °F 32.0 °F 87% 30.12 in 10.0 mi NNW 6.9 mph - N/A   Overcast
12:55 AM 35.6 °F 30.7 °F 32.0 °F 87% 30.11 in 10.0 mi NNW 5.8 mph - N/A   Overcast
1:15 AM 35.6 °F 29.9 °F 32.0 °F 87% 30.12 in 10.0 mi NNW 6.9 mph - N/A   Overcast
1:35 AM 35.6 °F 29.2 °F 32.0 °F 87% 30.11 in 10.0 mi NNW 8.1 mph - N/A   Overcast
1:55 AM 35.6 °F 29.9 °F 32.0 °F 87% 30.12 in 10.0 mi NNW 6.9 mph - N/A   Overcast
2:15 AM 35.6 °F 30.7 °F 32.0 °F 87% 30.12 in 10.0 mi North 5.8 mph - N/A   Overcast
2:35 AM 35.6 °F 27.5 °F 30.2 °F 81% 30.12 in 10.0 mi North 11.5 mph 16.1 mph N/A   Overcast
2:55 AM 35.6 °F 29.2 °F 30.2 °F 81% 30.12 in 10.0 mi North 8.1 mph - N/A   Overcast
3:15 AM 35.6 °F 29.2 °F 32.0 °F 87% 30.11 in 10.0 mi North 8.1 mph - N/A   Overcast
3:35 AM 35.6 °F 29.2 °F 32.0 °F 87% 30.11 in 10.0 mi North 8.1 mph - N/A   Overcast
3:55 AM 35.6 °F 29.2 °F 32.0 °F 87% 30.11 in 10.0 mi North 8.1 mph - N/A   Overcast
4:15 AM 33.8 °F 27.7 °F 32.0 °F 93% 30.09 in 10.0 mi North 6.9 mph - N/A   Overcast
4:35 AM 33.8 °F 27.7 °F 32.0 °F 93% 30.09 in 10.0 mi NNW 6.9 mph - N/A   Scattered Clouds
4:55 AM 33.8 °F 26.4 °F 32.0 °F 93% 30.10 in 10.0 mi NNW 9.2 mph - N/A   Mostly Cloudy
5:15 AM 33.8 °F 27.0 °F 32.0 °F 93% 30.11 in 10.0 mi NNW 8.1 mph - N/A   Overcast
5:35 AM 33.8 °F 27.7 °F 32.0 °F 93% 30.11 in 10.0 mi NNW 6.9 mph - N/A   Overcast
5:55 AM 33.8 °F 27.7 °F 32.0 °F 93% 30.12 in 7.0 mi North 6.9 mph - N/A Rain Light Rain
6:15 AM 33.8 °F 27.0 °F 32.0 °F 93% 30.13 in 10.0 mi North 8.1 mph - N/A Rain Light Rain
6:35 AM 33.8 °F 28.6 °F 32.0 °F 93% 30.13 in 10.0 mi North 5.8 mph - N/A Rain Light Rain
6:55 AM 33.8 °F 28.6 °F 32.0 °F 93% 30.13 in 10.0 mi North 5.8 mph - N/A Rain Light Rain
7:15 AM 33.8 °F 27.0 °F 32.0 °F 93% 30.13 in 10.0 mi North 8.1 mph - N/A   Overcast
7:35 AM 33.8 °F 25.8 °F 32.0 °F 93% 30.13 in 10.0 mi North 10.4 mph - N/A   Overcast
7:55 AM 33.8 °F 26.4 °F 32.0 °F 93% 30.14 in 7.0 mi North 9.2 mph - N/A   Overcast
8:15 AM 33.8 °F 27.0 °F 32.0 °F 93% 30.12 in 7.0 mi North 8.1 mph - N/A   Light Drizzle
8:35 AM 33.8 °F 27.7 °F 32.0 °F 93% 30.13 in 10.0 mi North 6.9 mph - N/A   Overcast
8:55 AM 33.8 °F 27.0 °F 32.0 °F 93% 30.12 in 4.0 mi North 8.1 mph - N/A   Drizzle
9:15 AM 33.8 °F 27.7 °F 32.0 °F 93% 30.13 in 7.0 mi North 6.9 mph - N/A   Overcast
9:35 AM 33.8 °F 27.7 °F 32.0 °F 93% 30.11 in 10.0 mi North 6.9 mph - N/A Snow Light Snow
9:55 AM 35.6 °F 28.6 °F 32.0 °F 87% 30.11 in 10.0 mi North 9.2 mph - N/A   Overcast
10:15 AM 35.6 °F 29.2 °F 32.0 °F 87% 30.10 in 10.0 mi North 8.1 mph - N/A   Overcast
10:35 AM 35.6 °F 29.9 °F 32.0 °F 87% 30.09 in 10.0 mi NNE 6.9 mph - N/A   Overcast
10:55 AM 35.6 °F 28.6 °F 33.8 °F 93% 30.08 in 10.0 mi NNE 9.2 mph - N/A   Overcast
11:15 AM 37.4 °F 30.8 °F 33.8 °F 87% 30.06 in 10.0 mi North 9.2 mph - N/A   Overcast
11:35 AM 37.4 °F 30.3 °F 33.8 °F 87% 30.06 in 10.0 mi NNE 10.4 mph - N/A   Overcast
11:55 AM 37.4 °F 29.8 °F 32.0 °F 81% 30.06 in 10.0 mi NNE 11.5 mph 17.3 mph N/A   Overcast
12:15 PM 37.4 °F 29.8 °F 32.0 °F 81% 30.06 in 10.0 mi NE 11.5 mph - N/A   Overcast
12:35 PM 37.4 °F 30.3 °F 33.8 °F 87% 30.04 in 10.0 mi NE 10.4 mph 16.1 mph N/A   Overcast
12:55 PM 37.4 °F 30.3 °F 33.8 °F 87% 30.04 in 10.0 mi NE 10.4 mph 19.6 mph N/A   Overcast
1:15 PM 37.4 °F 29.3 °F 33.8 °F 87% 30.04 in 10.0 mi NE 12.7 mph - N/A   Overcast
1:35 PM 37.4 °F 28.5 °F 33.8 °F 87% 30.03 in 10.0 mi NNE 15.0 mph - N/A   Overcast
1:55 PM 39.2 °F 33.0 °F 33.8 °F 81% 30.02 in 10.0 mi North 9.2 mph 16.1 mph N/A   Overcast
2:15 PM 39.2 °F 31.2 °F 32.0 °F 75% 30.01 in 10.0 mi North 13.8 mph 21.9 mph N/A   Overcast
2:35 PM 39.2 °F 30.2 °F 32.0 °F 75% 30.01 in 10.0 mi NNE 17.3 mph 21.9 mph N/A   Overcast
2:55 PM 39.2 °F 31.2 °F 32.0 °F 75% 30.01 in 10.0 mi North 13.8 mph - N/A   Overcast
3:15 PM 39.2 °F 31.2 °F 33.8 °F 81% 30.00 in 10.0 mi NNE 13.8 mph 21.9 mph N/A   Overcast
3:35 PM 37.4 °F 27.8 °F 32.0 °F 81% 29.99 in 10.0 mi North 17.3 mph 21.9 mph N/A   Overcast
3:55 PM 37.4 °F 28.9 °F 32.0 °F 81% 29.98 in 10.0 mi NNE 13.8 mph 23.0 mph N/A   Overcast
4:15 PM 37.4 °F 28.2 °F 32.0 °F 81% 29.97 in 10.0 mi North 16.1 mph 23.0 mph N/A   Overcast
4:35 PM 37.4 °F 28.2 °F 32.0 °F 81% 29.96 in 10.0 mi North 16.1 mph 24.2 mph N/A   Overcast
4:55 PM 37.4 °F 28.5 °F 32.0 °F 81% 29.98 in 10.0 mi NNE 15.0 mph 23.0 mph N/A   Overcast
5:15 PM 37.4 °F 29.8 °F 32.0 °F 81% 30.01 in 10.0 mi NNE 11.5 mph 18.4 mph N/A   Overcast
5:35 PM 37.4 °F 30.3 °F 32.0 °F 81% 30.01 in 10.0 mi NNE 10.4 mph - N/A   Overcast
5:55 PM 37.4 °F 29.8 °F 32.0 °F 81% 30.01 in 10.0 mi NNE 11.5 mph 17.3 mph N/A   Overcast
6:15 PM 37.4 °F 30.3 °F 33.8 °F 87% 29.99 in 10.0 mi North 10.4 mph 17.3 mph N/A   Overcast
6:35 PM 37.4 °F 28.9 °F 33.8 °F 87% 29.98 in 10.0 mi NNE 13.8 mph 18.4 mph N/A   Overcast
6:55 PM 37.4 °F 29.3 °F 33.8 °F 87% 29.96 in 10.0 mi NNE 12.7 mph 21.9 mph N/A   Overcast
7:15 PM 37.4 °F 28.5 °F 33.8 °F 87% 29.96 in 10.0 mi North 15.0 mph 21.9 mph N/A   Overcast
7:35 PM 37.4 °F 29.8 °F 33.8 °F 87% 29.96 in 10.0 mi North 11.5 mph 19.6 mph N/A   Overcast
7:55 PM 37.4 °F 29.3 °F 33.8 °F 87% 29.95 in 10.0 mi North 12.7 mph 19.6 mph N/A   Overcast
8:15 PM 37.4 °F 29.3 °F 33.8 °F 87% 29.94 in 10.0 mi North 12.7 mph 19.6 mph N/A   Overcast
8:35 PM 37.4 °F 29.3 °F 33.8 °F 87% 29.94 in 10.0 mi NNE 12.7 mph 19.6 mph N/A   Overcast
8:55 PM 39.2 °F 32.0 °F 33.8 °F 81% 29.94 in 10.0 mi North 11.5 mph 21.9 mph N/A   Overcast
9:15 PM 37.4 °F 28.9 °F 33.8 °F 87% 29.94 in 10.0 mi NNE 13.8 mph 20.7 mph N/A Rain Light Rain
9:35 PM 37.4 °F 29.3 °F 35.6 °F 93% 29.93 in 10.0 mi North 12.7 mph 17.3 mph 0.01 in Rain Rain
9:55 PM 37.4 °F 28.9 °F 35.6 °F 93% 29.92 in 10.0 mi NNE 13.8 mph 21.9 mph 0.01 in Rain Light Rain
10:15 PM 37.4 °F 29.8 °F 35.6 °F 93% 29.91 in 10.0 mi North 11.5 mph 19.6 mph 0.01 in Rain Rain
10:35 PM 37.4 °F 28.5 °F 35.6 °F 93% 29.91 in 10.0 mi North 15.0 mph 21.9 mph 0.01 in Rain Rain
10:55 PM 39.2 °F 31.2 °F 35.6 °F 87% 29.89 in 10.0 mi North 13.8 mph - N/A Rain Light Rain
11:15 PM 39.2 °F 30.8 °F 35.6 °F 87% 29.87 in 10.0 mi North 15.0 mph 21.9 mph N/A Rain Light Rain
11:35 PM 39.2 °F 30.8 °F 35.6 °F 87% 29.87 in 10.0 mi North 15.0 mph 23.0 mph 0.01 in Rain Light Rain
11:55 PM 39.2 °F 32.0 °F 35.6 °F 87% 29.87 in 10.0 mi NNE 11.5 mph 23.0 mph 0.02 in Rain Light Rain